Regional Weather Roundup
Issued by NWS Sterling, VA

Home | Current Version | Previous Version | Graphics & Text | Print | Product List | Glossary Off
Versions: 1 2 3 4 5 6 7 8 9 10 11 12 13 14 15 16 17 18 19 20 21 22 23 24 25 26 27 28 29 30 31 32 33 34 35 36 37 38 39 40 41 42 43 44 45 46 47 48 49 50

000
ASUS41 KLWX 260610
RWRLWX

REGIONAL WEATHER ROUNDUP
NATIONAL WEATHER SERVICE BALTIMORE MD/WASHINGTON DC
200 AM EDT TUE MAY 26 2015

Note: "FAIR" indicates few or no clouds below 12,000 feet
with no significant weather and/or obstructions to visibility.
 TC=TEMPERATURE CELSIUS

 * =Non NWS site. Station does not report precipitation (e.g. rain,
    snow, etc.), thunder, or fog.

DCZ001-MDZ009-015-VAZ040>042-051-053>054-260700-
WASHINGTON METRO

CITY           SKY/WX    TMP DP  RH WIND       PRES   REMARKS
WASHINGTON NAT MOCLDY    71  60  68 S10       30.21R
DULLES         CLEAR     66  56  70 S5        30.19S
ANDREWS AFB    CLEAR     67  59  75 S7        30.20S
FT BELVOIR     CLEAR     68  59  73 SE6       30.20S
QUANTICO       CLEAR     70  59  68 SW9       30.21S
COLLEGE PARK*  CLEAR     64  61  88 CALM      30.20S
LEESBURG*      CLEAR     68  59  73 S8        30.20S
MANASSAS*      CLEAR     64  57  77 S3        30.20S
GAITHERSBURG*  CLEAR     66  55  68 SE3       30.24S

$$

MDZ006>007-011-014-260700-
BALTIMORE METRO

CITY           SKY/WX    TMP DP  RH WIND       PRES   REMARKS
BWI AIRPORT    CLEAR     66  59  78 CALM      30.20S
MD SCIENCE CTR   N/A     69  59  70 MISG      30.21S
MARTIN STATE   CLEAR     68  63  83 S5        30.21F
ANNAPOLIS      CLEAR     68  60  75 S7        30.20S
FORT MEADE*    CLEAR     59  55  88 CALM      30.22S

$$

MDZ012-015-019>023-260700-
MARYLAND EASTERN SHORE

CITY           SKY/WX    TMP DP  RH WIND       PRES   REMARKS
OCEAN CITY     CLEAR     67  61  81 SW13      30.25F
SALISBURY      CLEAR     61  58  90 CALM      30.24F
BAY BRIDGE AP*   N/A    N/A N/A N/A S9        30.21S
CAMBRIDGE*     CLEAR     72  61  68 S6        30.22F
EASTON*        CLEAR     70  63  77 SW12      30.25F

$$

MDZ017>025-260700-
SOUTHERN MARYLAND

CITY           SKY/WX    TMP DP  RH WIND       PRES   REMARKS
PATUXENT RIVER CLEAR     68  59  73 S9        30.22S
ST INIGOES     CLEAR     69  59  70 S9        30.22S
LEONARDTOWN*   CLEAR     66  57  72 S5        30.24S

$$

MDZ003>005-260700-
NORTH CENTRAL MARYLAND

CITY           SKY/WX    TMP DP  RH WIND       PRES   REMARKS
FREDERICK*     CLEAR     64  59  82 S3        30.21S
HAGERSTOWN APT CLEAR     71  56  58 S6        30.18R
WESTMINSTER*   CLEAR     66  61  82 SE6       30.20F

$$

MDZ501>502-260700-
WESTERN MARYLAND

CITY           SKY/WX    TMP DP  RH WIND       PRES   REMARKS
OAKLAND*       CLEAR     64  59  82 SW7       30.26S
CUMBERLAND*    CLEAR     66  61  82 CALM      30.20S

$$

VAZ025>031-260700-
SHENANDOAH VALLEY

CITY           SKY/WX    TMP DP  RH WIND       PRES   REMARKS
WINCHESTER*    CLEAR     70  50  49 SW6       30.18F
FRONT ROYAL*   FAIR      68  55  64 S6        30.18S
LURAY*         FAIR      68  57  68 SW5       30.20F
NEW MARKET*    FAIR      64  57  78 SW5       30.20S
STAUNTON*      CLEAR     59  55  86 CALM      30.24F
WAYNESBORO*    FAIR      61  55  79 CALM      30.24S

$$

WVZ021-048>050-054>055-260700-
EASTERN WEST VIRGINIA PANHANDLE

CITY           SKY/WX    TMP DP  RH WIND       PRES   REMARKS
MARTINSBURG    CLEAR     66  56  70 CALM      30.18S
PETERSBURG*    PTCLDY    68  55  63 CALM      30.20S

$$

VAZ036>039-050-260700-
CENTRAL FOOTHILLS

CITY           SKY/WX    TMP DP  RH WIND       PRES   REMARKS
CHARLOTTESVILL CLEAR     66  56  70 SW5       30.20F
CULPEPER*      CLEAR     57  55  94 CALM      30.20F
ORANGE*        CLEAR     63  57  82 CALM      30.22F
GORDONSVILLE*  FAIR      58  56  94 CALM      30.20F
WARRENTON*     FAIR      66  58  77 S3        30.20S

$$

VAZ055>057-260700-
NORTH AND CENTRAL PIEDMONT

CITY           SKY/WX    TMP DP  RH WIND       PRES   REMARKS
FREDERICKSBRG* CLEAR     67  58  73 S6        30.20S
STAFFORD*      CLEAR     63  56  78 S3        30.24F

$$

NCZ024-NYZ072-PAZ021-071-VAZ022-071-260700-
OTHER REGIONAL OBSERVATIONS

CITY           SKY/WX    TMP DP  RH WIND       PRES   REMARKS
NEW YORK CITY  CLEAR     71  53  52 SW8G18    30.20F
PHILADELPHIA   CLEAR     69  53  56 SW8       30.21F
PITTSBURGH     CLOUDY    73  61  65 SW5       30.15S
ROANOKE        PTCLDY    64  56  75 NW3       30.26S
RICHMOND       CLEAR     68  59  73 S10       30.23F
RALEIGH        PTCLDY    68  61  78 SW8       30.27F

$$

ANZ530>537-260700-
MARINE OBSERVATIONS

STATION/POSITION TIME  TEMP    WIND        PRES
                       AIR SEA DIR/SP/G
                 (UTC) (F)     (DEG/KT/KT) (MB)
THOMAS PT LIGHT  0600   68 67  180/ 15/ 16 1023.3F
BALT KEY BRIDGE  0500   70     180/ 10/ 12 1022.3F
LEWISETTA        0500   70 71              1023.4F
SOLOMONS ISLAND  0500      70                N/A
PINEY POINT      0500          200/ 11/ 13   N/A

$$




USA.gov is the U.S. government's official web portal to all federal, state and local government web resources and services.